{"data":{"norad_id":67711,"epoch":"2026-05-24T21:13:08.831136Z","epoch_age_seconds":88497,"freshness":"FRESH","line1":"1 67711U 26025U   26144.88412999  .00016909  00000+0  52480-3 0  9990","line2":"2 67711  97.2842 256.5662 0000647 107.3844 252.7470 15.33451522 17705","mean_motion":15.33451522,"eccentricity":6.47e-5,"inclination_deg":97.2842,"raan_deg":256.5662,"arg_perigee_deg":107.3844,"mean_anomaly_deg":252.747,"bstar":0.0005248,"rev_number":1770,"period_min":93.90580525962,"perigee_km":465.08098481173,"apogee_km":465.96655451532,"semimajor_km":6843.6607696635,"source":"CELESTRAK","updated_at":"2026-05-25T13:38:21.683179Z"}}